Other Public Products
Issued by NWS Charleston, SC

Current Version | Previous Version | Text Only | Print | Product List | Glossary Off
Versions: 1 2 3 4 5 6 7 8 9 10 11 12 13 14 15 16 17 18 19 20 21 22 23 24 25 26 27 28 29 30 31 32 33 34 35 36 37 38 39 40 41 42 43 44 45 46 47 48 49 50
000 FPUS82 KCHS 210127 OPUCHS TEST...KCHS/KSAV Gateway Observations...TEST National Weather Service Charleston SC 900 PM EDT THU JUL 20 2017 NOTE: "fair" indicates few or no clouds below 12,000 feet with no significant weather and/or obstructions to visibility. SCZ050-WAZ558-NCZ071-TXZ119-213-PAZ071-DCZ001-FLZ074-172-MI076- NYZ176-178-MAZ016-IL014-TNZ027-NJZ106-GAZ044-MD014-210200- ...Gateway Observations for Charleston International... CITY SKY/WX TMP DP RH WIND PRES REMARKS Chas Airport PTCLDY 80 72 76 SW6 30.02S Seattle MOSUNNY 72 51 47 SW14 30.12F Charlotte PTCLDY 84 72 67 S9 30.01R Dallas DFW PTCLDY 94 70 45 SE12 29.95S HX 100 Dallas Love PTCLDY 95 68 41 SE12 29.96S HX 99 Philladelphia MOCLDY 90 71 53 SW6 29.91R HX 96 Wash National MOCLDY 89 76 65 S8 29.92R HX 100 Baltimore MOCLDY 88 70 55 VRB5 29.91R HX 93 Miami MOCLDY 84 74 71 E9 30.07R HX 91 Detroit MOCLDY 83 70 64 SW8 29.95S Newark LGT RAIN 80 69 69 SW13 29.89R Laguardia LGT RAIN 82 73 74 W16 29.87S J F K CLOUDY 90 69 50 W12 29.88S HX 94 Boston Logan CLOUDY 77 68 73 N13 29.84R Ft. Lauderdale CLOUDY 83 77 82 E15 30.06R HX 92 Chicago O`Hare MOCLDY 80 69 69 NE7 29.96R Chicago Midway MOCLDY 80 70 71 E10 29.96R Houston Bush PTCLDY 89 75 63 S13 30.00R HX 99 Houston Hobby PTCLDY 88 75 65 S7 30.00S HX 97 Nashville MOCLDY 88 72 58 W7 30.03S HX 94 Atlanta PTCLDY 86 70 58 NW9 30.04R HX 90 $$ GAZ044-118-TXZ119-213-NCZ071-DCZ001-MDZ014-506-PAZ021-071-NJZ106- NYZ176-178-MAZ106-OHZ011-021-055-MIZ076-KYZ091-ILZ014-INZ047- MNZ060-ONZ431-210200- ...Gateway Observations for Savannah International... CITY SKY/WX TMP DP RH WIND PRES REMARKS Savannah Arpt PTCLDY 79 72 79 S5 30.03R Atlanta PTCLDY 86 70 58 NW9 30.04R HX 90 Charlotte PTCLDY 84 72 67 S9 30.01R Dallas DFW PTCLDY 94 70 45 SE12 29.95S HX 100 Houston Bush PTCLDY 89 75 63 S13 30.00R HX 99 Wash National MOCLDY 89 76 65 S8 29.92R HX 100 Wash Dulles CLOUDY 84 72 67 CALM 29.93R Baltimore MOCLDY 88 70 55 VRB5 29.91R HX 93 Philadelphia MOCLDY 90 71 53 SW6 29.91R HX 96 Newark LGT RAIN 80 69 69 SW13 29.89R Laguardia LGT RAIN 82 73 74 W16 29.87S J F K CLOUDY 90 69 50 W12 29.88S HX 94 Boston CLOUDY 77 68 73 N13 29.84R Pittsburg CLOUDY 77 72 84 SW5 30.00F Akron CLOUDY 82 68 62 CALM 29.98F Cleveland CLOUDY 84 66 54 SW3 29.97S Cincinnati MOCLDY 85 73 67 SW5 30.01R HX 91 Columbus CLOUDY 78 74 88 S3 29.99F Detroit MOCLDY 83 70 64 SW8 29.95S Chicago O`Hare MOCLDY 80 69 69 NE7 29.96R Minneapolis PTCLDY 86 63 45 CALM 29.97F Indianapolis MOCLDY 84 78 82 S7 29.97S HX 95 Toronto Canada PTCLDY 72 64 78 S3 29.89S $$

USA.gov is the U.S. government's official web portal to all federal, state and local government web resources and services.